Previsão horária em Allassac

Hoje, 15 Junho, Terça-feira

Tempo Temperatura Precipitação Vento Pressão Humidade
00:00 +20°C° 0 mm 1 m/s 738 mmHg 78%
01:00 +19°C° 0 mm 1 m/s 738 mmHg 80%
02:00 +19°C° 0 mm 1 m/s 738 mmHg 81%
03:00 +19°C° 0 mm 1 m/s 737 mmHg 82%
04:00 +18°C° 0 mm 0 m/s 738 mmHg 79%
05:00 +18°C° 0 mm 0 m/s 738 mmHg 76%
06:00 +19°C° 0 mm 0 m/s 738 mmHg 73%
07:00 +22°C° 0 mm 0 m/s 738 mmHg 65%
08:00 +24°C° 0 mm 0 m/s 738 mmHg 56%
09:00 +29°C° 0 mm 1 m/s 738 mmHg 48%
10:00 +30°C° 0 mm 1 m/s 738 mmHg 44%
11:00 +31°C° 0 mm 1 m/s 738 mmHg 40%
12:00 +32°C° 0 mm 1 m/s 738 mmHg 36%
13:00 +32°C° 0 mm 1 m/s 737 mmHg 34%
14:00 +33°C° 0 mm 1 m/s 737 mmHg 33%
15:00 +33°C° 0 mm 1 m/s 736 mmHg 32%
16:00 +32°C° 0 mm 1 m/s 736 mmHg 39%
17:00 +30°C° 0 mm 1 m/s 736 mmHg 46%
18:00 +29°C° 0 mm 1 m/s 736 mmHg 53%
19:00 +27°C° 0 mm 1 m/s 736 mmHg 59%
20:00 +24°C° 0 mm 1 m/s 736 mmHg 65%
21:00 +22°C° 0 mm 1 m/s 736 mmHg 71%
22:00 +21°C° 0 mm 1 m/s 735 mmHg 73%
23:00 +21°C° 0 mm 1 m/s 735 mmHg 75%

Amanhã, 16 Junho, Quarta-feira

Tempo Temperatura Precipitação Vento Pressão Humidade
00:00 +20°C° 0 mm 1 m/s 735 mmHg 77%
01:00 +19°C° 0 mm 1 m/s 735 mmHg 80%
02:00 +19°C° 0 mm 1 m/s 735 mmHg 82%
03:00 +19°C° 0 mm 1 m/s 734 mmHg 84%
04:00 +20°C° 0 mm 1 m/s 734 mmHg 81%
05:00 +21°C° 0 mm 1 m/s 734 mmHg 77%
06:00 +22°C° 0 mm 1 m/s 734 mmHg 74%
07:00 +25°C° 0 mm 1 m/s 734 mmHg 65%
08:00 +27°C° 0 mm 1 m/s 734 mmHg 55%
09:00 +30°C° 0 mm 1 m/s 734 mmHg 46%
10:00 +31°C° 0 mm 1 m/s 734 mmHg 42%
11:00 +32°C° 0 mm 2 m/s 733 mmHg 38%
12:00 +35°C° 0 mm 2 m/s 733 mmHg 34%
13:00 +35°C° 0 mm 2 m/s 733 mmHg 33%
14:00 +34°C° 0 mm 1 m/s 732 mmHg 32%
15:00 +35°C° 0 mm 1 m/s 732 mmHg 30%
16:00 +33°C° 0 mm 1 m/s 731 mmHg 38%
17:00 +32°C° 0 mm 1 m/s 731 mmHg 46%
18:00 +30°C° 0 mm 1 m/s 731 mmHg 53%
19:00 +27°C° 0.4 mm 2 m/s 732 mmHg 66%
20:00 +24°C° 0.4 mm 2 m/s 732 mmHg 79%
21:00 +19°C° 0.4 mm 3 m/s 733 mmHg 92%
22:00 +19°C° 1 mm 2 m/s 733 mmHg 94%
23:00 +19°C° 1 mm 1 m/s 733 mmHg 96%

Depois de amanhã, 17 Junho, Quinta-feira

Tempo Temperatura Precipitação Vento Pressão Humidade
00:00 +19°C° 1 mm 1 m/s 733 mmHg 98%
01:00 +19°C° 0.2 mm 1 m/s 733 mmHg 98%
02:00 +19°C° 0.2 mm 1 m/s 733 mmHg 98%
03:00 +18°C° 0.2 mm 1 m/s 732 mmHg 98%
04:00 +19°C° 0 mm 1 m/s 732 mmHg 97%
05:00 +19°C° 0 mm 1 m/s 732 mmHg 96%
06:00 +18°C° 0 mm 0 m/s 733 mmHg 95%
07:00 +22°C° 0 mm 1 m/s 732 mmHg 83%
08:00 +24°C° 0 mm 1 m/s 732 mmHg 72%
09:00 +26°C° 0 mm 1 m/s 732 mmHg 60%
10:00 +27°C° 0.1 mm 2 m/s 732 mmHg 58%
11:00 +27°C° 0.1 mm 3 m/s 732 mmHg 56%
12:00 +28°C° 0.1 mm 4 m/s 732 mmHg 55%
13:00 +27°C° 0.1 mm 4 m/s 732 mmHg 55%
14:00 +26°C° 0.1 mm 4 m/s 731 mmHg 56%
15:00 +25°C° 0.1 mm 4 m/s 731 mmHg 57%
16:00 +22°C° 2.8 mm 3 m/s 731 mmHg 70%
17:00 +20°C° 2.8 mm 3 m/s 732 mmHg 84%
18:00 +18°C° 2.8 mm 2 m/s 732 mmHg 97%
19:00 +18°C° 0.6 mm 2 m/s 733 mmHg 98%
20:00 +18°C° 0.6 mm 1 m/s 733 mmHg 98%
21:00 +18°C° 0.6 mm 1 m/s 734 mmHg 98%
22:00 +16°C° 0 mm 1 m/s 734 mmHg 98%
23:00 +16°C° 0 mm 1 m/s 734 mmHg 99%

18 Junho, Sexta-feira

Tempo Temperatura Precipitação Vento Pressão Humidade
00:00 +16°C° 0 mm 1 m/s 734 mmHg 99%
01:00 +16°C° 0 mm 1 m/s 734 mmHg 99%
02:00 +16°C° 0 mm 1 m/s 734 mmHg 99%
03:00 +16°C° 0 mm 1 m/s 735 mmHg 98%
04:00 +16°C° 0 mm 1 m/s 735 mmHg 98%
05:00 +16°C° 0 mm 1 m/s 735 mmHg 98%
06:00 +18°C° 0 mm 1 m/s 735 mmHg 98%
07:00 +18°C° 0.1 mm 1 m/s 736 mmHg 93%
08:00 +19°C° 0.1 mm 1 m/s 736 mmHg 88%
09:00 +20°C° 0.1 mm 1 m/s 736 mmHg 83%
10:00 +21°C° 0 mm 2 m/s 736 mmHg 74%
11:00 +23°C° 0 mm 2 m/s 736 mmHg 66%
12:00 +25°C° 0 mm 2 m/s 736 mmHg 57%
13:00 +25°C° 0 mm 2 m/s 736 mmHg 55%
14:00 +26°C° 0 mm 2 m/s 736 mmHg 54%
15:00 +26°C° 0 mm 1 m/s 736 mmHg 53%
16:00 +26°C° 0 mm 1 m/s 736 mmHg 56%
17:00 +25°C° 0 mm 1 m/s 736 mmHg 59%
18:00 +25°C° 0 mm 1 m/s 735 mmHg 63%
19:00 +23°C° 0 mm 1 m/s 735 mmHg 70%
20:00 +21°C° 0 mm 1 m/s 736 mmHg 78%
21:00 +19°C° 0 mm 1 m/s 736 mmHg 86%
22:00 +18°C° 0.4 mm 1 m/s 736 mmHg 90%
23:00 +18°C° 0.4 mm 1 m/s 735 mmHg 93%

19 Junho, Sábado

Tempo Temperatura Precipitação Vento Pressão Humidade
00:00 +16°C° 0.4 mm 1 m/s 735 mmHg 97%
01:00 +16°C° 0 mm 1 m/s 735 mmHg 97%
02:00 +16°C° 0 mm 1 m/s 734 mmHg 97%
03:00 +16°C° 0 mm 1 m/s 734 mmHg 97%
04:00 +18°C° 0 mm 1 m/s 734 mmHg 96%
05:00 +18°C° 0 mm 1 m/s 733 mmHg 95%
06:00 +19°C° 0 mm 1 m/s 733 mmHg 94%
07:00 +20°C° 0 mm 2 m/s 733 mmHg 83%
08:00 +24°C° 0 mm 2 m/s 733 mmHg 71%
09:00 +26°C° 0 mm 3 m/s 732 mmHg 60%
10:00 +27°C° 0 mm 3 m/s 732 mmHg 56%
11:00 +29°C° 0 mm 3 m/s 731 mmHg 51%
12:00 +30°C° 0 mm 3 m/s 731 mmHg 47%
13:00 +32°C° 0 mm 4 m/s 730 mmHg 46%
14:00 +32°C° 0 mm 4 m/s 729 mmHg 44%
15:00 +32°C° 0 mm 5 m/s 728 mmHg 43%
16:00 +28°C° 0.3 mm 5 m/s 729 mmHg 55%
17:00 +26°C° 0.3 mm 4 m/s 729 mmHg 67%
18:00 +22°C° 0.3 mm 4 m/s 730 mmHg 79%
19:00 +20°C° 0 mm 3 m/s 731 mmHg 84%
20:00 +19°C° 0 mm 2 m/s 731 mmHg 90%
21:00 +18°C° 0 mm 1 m/s 732 mmHg 95%
22:00 +18°C° 0 mm 1 m/s 733 mmHg 95%
23:00 +18°C° 0 mm 1 m/s 733 mmHg 94%

20 Junho, Domingo

Tempo Temperatura Precipitação Vento Pressão Humidade
00:00 +18°C° 0 mm 1 m/s 733 mmHg 94%
01:00 +18°C° 0 mm 1 m/s 733 mmHg 93%
02:00 +18°C° 0 mm 1 m/s 733 mmHg 91%
03:00 +18°C° 0 mm 1 m/s 734 mmHg 90%
04:00 +18°C° 0 mm 1 m/s 734 mmHg 88%
05:00 +18°C° 0 mm 1 m/s 734 mmHg 87%
06:00 +18°C° 0 mm 1 m/s 734 mmHg 85%
07:00 +20°C° 0 mm 1 m/s 734 mmHg 77%
08:00 +21°C° 0 mm 1 m/s 735 mmHg 70%
09:00 +21°C° 0 mm 2 m/s 735 mmHg 63%
10:00 +23°C° 0 mm 2 m/s 735 mmHg 59%
11:00 +24°C° 0 mm 2 m/s 735 mmHg 55%
12:00 +25°C° 0 mm 2 m/s 735 mmHg 51%
13:00 +25°C° 0.1 mm 2 m/s 735 mmHg 52%
14:00 +25°C° 0.1 mm 2 m/s 734 mmHg 52%
15:00 +25°C° 0.1 mm 2 m/s 734 mmHg 53%
16:00 +24°C° 0 mm 2 m/s 734 mmHg 57%
17:00 +23°C° 0 mm 2 m/s 734 mmHg 61%
18:00 +21°C° 0 mm 2 m/s 734 mmHg 65%
19:00 +20°C° 0.1 mm 2 m/s 735 mmHg 73%
20:00 +19°C° 0.1 mm 1 m/s 735 mmHg 81%
21:00 +16°C° 0.1 mm 1 m/s 735 mmHg 89%
22:00 +16°C° 0 mm 1 m/s 735 mmHg 91%
23:00 +15°C° 0 mm 1 m/s 735 mmHg 92%
Mostrar mais